Change the Weather History Date:

Saturday, September 7, 2013

  Actual Average (KLAS) Record (KLAS)
Temperature  
Mean Temperature 82 °F 86 °F  
Max Temperature 86 °F 97 °F 108 °F (1955)
Min Temperature 75 °F 75 °F 56 °F (1938)
Degree Days  
Heating Degree Days 0 0  
Month to date heating degree days 0  
Since 1 July heating degree days 0  
Cooling Degree Days 16 21  
Month to date cooling degree days 153  
Year to date cooling degree days 3002  
Growing Degree Days 32 (Base 50)    
Moisture  
Dew Point 57 °F    
Average Humidity 43    
Maximum Humidity 57    
Minimum Humidity 35    
Precipitation  
Precipitation 0.00 in 0.01 in 0.62 in (1950)
Month to date precipitation 0.07  
Year to date precipitation 2.88  
Snow  
Snow 0.00 in 0.00 in 0.00 in ()
Month to date snowfall 0.0  
Since 1 July snowfall 0.0  
Since 1 September snowfall 0.0  
Snow Depth -    
Sea Level Pressure  
Sea Level Pressure 29.92 in    
Wind  
Wind Speed 6 mph (SSW)    
Max Wind Speed 15 mph    
Max Gust Speed -    
Visibility 10 miles    
Events Rain    
T = Trace of Precipitation, MM = Missing Value Source: NWS Daily Summary

Daily Weather History Graph

Daily Weather History Graph

Search for Another Location

Airport or City:

Trip Planner

Search our weather history database for the weather conditions in past years. The results will help you decide how hot, cold, wet, or windy it might be!

Date:

Astronomy

Sep. 07, 2013 Rise Set
Actual Time 6:17 AM PDT 6:59 PM PDT
Civil Twilight 5:51 AM PDT 7:24 PM PDT
Nautical Twilight 5:20 AM PDT 7:55 PM PDT
Astronomical Twilight 4:49 AM PDT 8:26 PM PDT
Moon 8:29 AM PDT (9/7) 8:06 PM PDT (9/7)
Length of Visible Light 13h 33m
Length of Day
12h 41m
Waxing Crescent, 6% of the Moon is Illuminated
Sep 7
Waxing Crescent
Sep 12
First Quarter
Sep 19
Full
Sep 26
Last Quarter
Oct 4
New

Hourly Weather History & Observations

Time (PDT) Temp. Heat Index Dew Point Humidity Pressure Visibility Wind Dir Wind Speed Gust Speed Precip Events Conditions
12:56 AM 82.9 °F 82.1 °F 55.9 °F 39% 29.88 in 10.0 mi South 15.0 mph - N/A   Clear
1:56 AM 81.9 °F 81.6 °F 56.8 °F 42% 29.90 in 10.0 mi SSE 11.5 mph - N/A   Clear
2:56 AM 81.0 °F 80.8 °F 55.9 °F 42% 29.91 in 10.0 mi SSW 4.6 mph - N/A   Clear
3:56 AM 81.0 °F 80.7 °F 54.9 °F 41% 29.90 in 10.0 mi South 11.5 mph - N/A   Scattered Clouds
4:56 AM 79.9 °F - 55.9 °F 44% 29.90 in 10.0 mi SSW 5.8 mph - N/A   Mostly Cloudy
5:56 AM 79.0 °F - 56.8 °F 46% 29.90 in 10.0 mi SW 5.8 mph - 0.00 in Rain Heavy Rain
6:56 AM 77.9 °F - 59.0 °F 52% 29.93 in 10.0 mi Calm Calm - 0.00 in   Clear
7:56 AM 79.9 °F - 57.9 °F 47% 29.94 in 10.0 mi SW 4.6 mph - N/A   Clear
8:56 AM 81.0 °F 81.3 °F 59.0 °F 47% 29.96 in 10.0 mi Calm Calm - N/A   Clear
9:56 AM 83.8 °F 83.3 °F 57.9 °F 41% 29.97 in 10.0 mi Calm Calm - N/A   Clear
10:56 AM 82.9 °F 82.6 °F 57.9 °F 42% 29.97 in 10.0 mi Calm Calm - N/A   Partly Cloudy
11:56 AM 84.9 °F 83.7 °F 55.9 °F 37% 29.96 in 10.0 mi South 11.5 mph - N/A   Scattered Clouds
12:56 PM 86.0 °F 84.7 °F 55.9 °F 36% 29.95 in 10.0 mi Calm Calm - N/A   Partly Cloudy
1:56 PM 86.9 °F 85.5 °F 55.9 °F 35% 29.93 in 10.0 mi Calm Calm - N/A   Partly Cloudy
2:56 PM 84.9 °F 84.2 °F 57.9 °F 40% 29.92 in 10.0 mi ESE 8.1 mph - 0.00 in Rain Light Rain
3:56 PM 83.8 °F 82.7 °F 54.9 °F 37% 29.91 in 10.0 mi Calm Calm - 0.00 in   Clear
4:56 PM 84.9 °F 83.7 °F 55.9 °F 37% 29.88 in 10.0 mi North 3.5 mph - N/A   Scattered Clouds
5:56 PM 84.9 °F 83.7 °F 55.9 °F 37% 29.88 in 10.0 mi Calm Calm - N/A   Clear
6:56 PM 82.9 °F 82.0 °F 54.9 °F 38% 29.89 in 10.0 mi Calm Calm - N/A   Clear
7:56 PM 81.0 °F 81.0 °F 56.8 °F 44% 29.90 in 10.0 mi Calm Calm - N/A   Clear
8:56 PM 79.9 °F - 57.9 °F 47% 29.91 in 10.0 mi Calm Calm - N/A   Clear
9:56 PM 77.9 °F - 59.0 °F 52% 29.92 in 10.0 mi Calm Calm - N/A   Clear
10:56 PM 77.0 °F - 59.9 °F 55% 29.91 in 10.0 mi Calm Calm - N/A   Clear
11:56 PM 75.9 °F - 59.9 °F 57% 29.91 in 10.0 mi Calm Calm - N/A   Partly Cloudy